This is the latest recevied weather packets stored in our database for station/object N9OJR. If no packets are shown the sender has not sent any weather packets the latest 10 day(s).
| Time | Temp. | Humidity | Pressure | Rain* | Wind** | Luminosity | Snow |
|---|---|---|---|---|---|---|---|
| 1777858908 | 10.56° C | 64% | 1009.7 hPa | 0 mm | - | 0 W/m² | - |
| 1777858606 | 11.11° C | 64% | 1009.7 hPa | 0 mm | - | 0 W/m² | - |
| 1777858302 | 11.11° C | 64% | 1009.5 hPa | 0 mm | - | 0 W/m² | - |
| 1777858000 | 11.11° C | 62% | 1009.5 hPa | 0 mm | - | 0 W/m² | - |
| 1777857698 | 11.11° C | 60% | 1009.6 hPa | 0 mm | - | 0 W/m² | - |
| 1777857394 | 11.67° C | 58% | 1009.5 hPa | 0 mm | - | 0 W/m² | - |
| 1777857091 | 11.11° C | 55% | 1009.3 hPa | 0 mm | - | 0 W/m² | - |
| 1777856786 | 11.11° C | 56% | 1009 hPa | 0 mm | - | 0 W/m² | - |
| 1777856482 | 11.11° C | 55% | 1009 hPa | 0 mm | - | 0 W/m² | - |
| 1777856180 | 11.11° C | 55% | 1008.9 hPa | 0 mm | - | 0 W/m² | - |
| 1777855876 | 11.11° C | 55% | 1008.9 hPa | 0 mm | - | 0 W/m² | - |
| 1777855575 | 11.67° C | 54% | 1009 hPa | 0 mm | - | 0 W/m² | - |
| 1777855271 | 11.67° C | 55% | 1009 hPa | 0 mm | - | 0 W/m² | - |
| 1777854968 | 11.67° C | 54% | 1009 hPa | 0 mm | - | 0 W/m² | - |
| 1777854664 | 11.67° C | 54% | 1008.9 hPa | 0 mm | - | 0 W/m² | - |
| 1777854361 | 12.22° C | 53% | 1008.8 hPa | 0 mm | - | 2 W/m² | - |
| 1777854059 | 12.22° C | 53% | 1008.9 hPa | 0 mm | - | 3 W/m² | - |
| 1777853756 | 12.22° C | 52% | 1009 hPa | 0 mm | - | 6 W/m² | - |
| 1777853452 | 12.78° C | 51% | 1008.9 hPa | 0 mm | - | 10 W/m² | - |
| 1777853149 | 12.78° C | 52% | 1008.9 hPa | 0 mm | - | 15 W/m² | - |
| 1777852847 | 12.78° C | 52% | 1008.9 hPa | 0 mm | - | 21 W/m² | - |
| 1777852545 | 13.33° C | 50% | 1009.1 hPa | 0 mm | - | 27 W/m² | - |
| 1777852242 | 13.33° C | 51% | 1009.2 hPa | 0 mm | - | 30 W/m² | - |
| 1777851939 | 13.89° C | 50% | 1009.2 hPa | 0 mm | - | 35 W/m² | - |
| 1777851638 | 13.33° C | 49% | 1009.2 hPa | 0 mm | - | 36 W/m² | - |
* Rain latest hour (hover to see other rain measurements)
** Current wind speed in m/s (hover to see current wind gust speed)